| time (UTC) | temp F | wind direction | speed knots | gust knots | rain 1hr in | rain 24hr in | rain mn in | humidity % | barometer mb |
| 20260506222540 | 85 | 240 | 7.8 | 9.6 | 0.00 | 0.00 | 0.00 | 100 | 1017.9 |
| 20260506222040 | 85 | 258 | 8.7 | 10.4 | 0.00 | 0.00 | 0.00 | 100 | 1017.9 |
| 20260506221540 | 86 | 247 | 6.1 | 7.8 | 0.00 | 0.00 | 0.00 | 100 | 1017.9 |
| 20260506221040 | 87 | 272 | 7.0 | 9.6 | 0.00 | 0.00 | 0.00 | 100 | 1017.8 |
| 20260506220540 | 87 | 244 | 5.2 | 7.8 | 0.00 | 0.00 | 0.00 | 100 | 1017.8 |
| 20260506220040 | 87 | 278 | 6.1 | 10.4 | 0.00 | 0.00 | 0.00 | 100 | 1017.7 |
| 20260506215540 | 86 | 220 | 5.2 | 10.4 | 0.00 | 0.00 | 0.00 | 100 | 1017.8 |
| 20260506215040 | 87 | 243 | 6.1 | 10.4 | 0.00 | 0.00 | 0.00 | 100 | 1017.8 |
| 20260506214540 | 88 | 262 | 6.1 | 9.6 | 0.00 | 0.00 | 0.00 | 100 | 1017.8 |
| 20260506214040 | 88 | 277 | 3.5 | 9.6 | 0.00 | 0.00 | 0.00 | 100 | 1017.7 |
| 20260506213540 | 89 | 278 | 2.6 | 10.4 | 0.00 | 0.00 | 0.00 | 100 | 1017.7 |
| 20260506213040 | 89 | 248 | 5.2 | 9.6 | 0.00 | 0.00 | 0.00 | 100 | 1017.7 |
| 20260506212540 | 89 | 260 | 5.2 | 8.7 | 0.00 | 0.00 | 0.00 | 100 | 1017.7 |
| 20260506212040 | 90 | 275 | 6.1 | 9.6 | 0.00 | 0.00 | 0.00 | 100 | 1017.6 |
| 20260506211540 | 90 | 255 | 4.3 | 7.8 | 0.00 | 0.00 | 0.00 | 100 | 1017.7 |
| 20260506211040 | 91 | 305 | 1.7 | 7.0 | 0.00 | 0.00 | 0.00 | 100 | 1017.7 |
| 20260506210540 | 91 | 322 | 3.5 | 7.0 | 0.00 | 0.00 | 0.00 | 100 | 1017.7 |
| 20260506210040 | 91 | 277 | 2.6 | 7.0 | 0.00 | 0.00 | 0.00 | 100 | 1017.6 |
| 20260506205540 | 90 | 246 | 4.3 | 10.4 | 0.00 | 0.00 | 0.00 | 100 | 1017.6 |
| 20260506205233 | 89 | 213 | 5.2 | 9.6 | 0.00 | 0.00 | 0.00 | 100 | 1017.6 |
| 20260506205040 | 89 | 270 | 7.0 | 9.6 | 0.00 | 0.00 | 0.00 | 100 | 1017.6 |
| 20260506204540 | 89 | 213 | 5.2 | 9.6 | 0.00 | 0.00 | 0.00 | 100 | 1017.6 |
| 20260506204040 | 90 | 236 | 5.2 | 9.6 | 0.00 | 0.00 | 0.00 | 100 | 1017.5 |
| 20260506203540 | 90 | 209 | 6.1 | 8.7 | 0.00 | 0.00 | 0.00 | 100 | 1017.5 |
| 20260506203040 | 90 | 239 | 6.1 | 13.0 | 0.00 | 0.00 | 0.00 | 100 | 1017.6 |
| 20260506202540 | 91 | 233 | 7.8 | 12.2 | 0.00 | 0.00 | 0.00 | 100 | 1017.6 |
| 20260506202040 | 91 | 244 | 8.7 | 13.9 | 0.00 | 0.00 | 0.00 | 100 | 1017.7 |
| 20260506201711 | 91 | 240 | 7.8 | 13.0 | 0.00 | 0.00 | 0.00 | 100 | 1017.7 |
| 20260506201540 | 91 | 240 | 7.8 | 13.0 | 0.00 | 0.00 | 0.00 | 100 | 1017.7 |
| 20260506201040 | 92 | 267 | 3.5 | 14.8 | 0.00 | 0.00 | 0.00 | 100 | 1017.6 |
| 20260506200540 | 92 | 241 | 6.1 | 9.6 | 0.00 | 0.00 | 0.00 | 100 | 1017.7 |
| 20260506200040 | 92 | 258 | 9.6 | 10.4 | 0.00 | 0.00 | 0.00 | 100 | 1017.6 |
| 20260506195540 | 93 | 264 | 3.5 | 9.6 | 0.00 | 0.00 | 0.00 | 100 | 1017.6 |
| 20260506195145 | 93 | 326 | 0.9 | 9.6 | 0.00 | 0.00 | 0.00 | 100 | 1017.7 |
| 20260506195040 | 93 | 326 | 0.9 | 9.6 | 0.00 | 0.00 | 0.00 | 100 | 1017.7 |
| 20260506194841 | 93 | 253 | 7.0 | 7.8 | 0.00 | 0.00 | 0.00 | 100 | 1017.7 |
| 20260506194540 | 93 | 253 | 7.0 | 7.8 | 0.00 | 0.00 | 0.00 | 100 | 1017.7 |
| 20260506194040 | 93 | 84 | 1.7 | 4.3 | 0.00 | 0.00 | 0.00 | 100 | 1017.8 |
| 20260506193540 | 92 | 91 | 2.6 | 3.5 | 0.00 | 0.00 | 0.00 | 100 | 1017.9 |
| 20260506193406 | 92 | 144 | 3.5 | 7.8 | 0.00 | 0.00 | 0.00 | 100 | 1018.0 |
| 20260506193040 | 92 | 144 | 3.5 | 7.8 | 0.00 | 0.00 | 0.00 | 100 | 1018.0 |
| 20260506192933 | 94 | 130 | 3.5 | 6.1 | 0.00 | 0.00 | 0.00 | 100 | 1017.9 |
| 20260506192540 | 94 | 130 | 3.5 | 6.1 | 0.00 | 0.00 | 0.00 | 100 | 1017.9 |
| 20260506192040 | 94 | 246 | 1.7 | 6.1 | 0.00 | 0.00 | 0.00 | 100 | 1017.9 |
| 20260506191719 | 92 | 278 | 0.9 | 6.1 | 0.00 | 0.00 | 0.00 | 100 | 1018.0 |
| 20260506191540 | 94 | 244 | 0.0 | 8.7 | 0.00 | 0.00 | 0.00 | 100 | 1017.9 |
| 20260506191040 | 92 | 333 | 1.7 | 6.1 | 0.00 | 0.00 | 0.00 | 100 | 1018.0 |
| 20260506190540 | 92 | 278 | 0.9 | 6.1 | 0.00 | 0.00 | 0.00 | 100 | 1018.0 |
| 20260506190040 | 91 | 306 | 0.9 | 6.1 | 0.00 | 0.00 | 0.00 | 100 | 1018.1 |
| 20260506185625 | 92 | 222 | 1.7 | 6.1 | 0.00 | 0.00 | 0.00 | 100 | 1018.2 |
| 20260506185540 | 92 | 222 | 1.7 | 6.1 | 0.00 | 0.00 | 0.00 | 100 | 1018.2 |
| 20260506185427 | 92 | 158 | 5.2 | 6.1 | 0.00 | 0.00 | 0.00 | 100 | 1018.3 |
| 20260506185040 | 92 | 158 | 5.2 | 6.1 | 0.00 | 0.00 | 0.00 | 100 | 1018.3 |
| 20260506184540 | 92 | 132 | 5.2 | 7.8 | 0.00 | 0.00 | 0.00 | 100 | 1018.5 |
| 20260506184040 | 92 | 8 | 0.9 | 8.7 | 0.00 | 0.00 | 0.00 | 100 | 1018.5 |
| 20260506183729 | 92 | 212 | 7.0 | 8.7 | 0.00 | 0.00 | 0.00 | 100 | 1018.7 |
| 20260506183541 | 92 | 212 | 7.0 | 8.7 | 0.00 | 0.00 | 0.00 | 100 | 1018.7 |
| 20260506183200 | 93 | 286 | 1.7 | 5.2 | 0.00 | 0.00 | 0.00 | 100 | 1018.7 |
| 20260506183041 | 93 | 286 | 1.7 | 5.2 | 0.00 | 0.00 | 0.00 | 100 | 1018.7 |
| 20260506182916 | 92 | 278 | 1.7 | 5.2 | 0.00 | 0.00 | 0.00 | 100 | 1018.8 |
| 20260506182541 | 92 | 278 | 1.7 | 5.2 | 0.00 | 0.00 | 0.00 | 100 | 1018.8 |
| 20260506182519 | 92 | 164 | 0.0 | 6.1 | 0.00 | 0.00 | 0.00 | 100 | 1018.8 |
| 20260506182041 | 92 | 164 | 0.0 | 6.1 | 0.00 | 0.00 | 0.00 | 100 | 1018.8 |
| 20260506181908 | 92 | 210 | 8.7 | 8.7 | 0.00 | 0.00 | 0.00 | 100 | 1019.0 |
| 20260506181541 | 91 | 130 | 3.5 | 9.6 | 0.00 | 0.00 | 0.00 | 100 | 1018.9 |
| 20260506181041 | 92 | 210 | 8.7 | 8.7 | 0.00 | 0.00 | 0.00 | 100 | 1019.0 |
| 20260506181018 | 91 | 232 | 2.6 | 8.7 | 0.00 | 0.00 | 0.00 | 100 | 1019.0 |
| 20260506180541 | 90 | 147 | 1.7 | 9.6 | 0.00 | 0.00 | 0.00 | 100 | 1019.0 |
| 20260506180041 | 91 | 232 | 2.6 | 8.7 | 0.00 | 0.00 | 0.00 | 100 | 1019.0 |
| 20260506180017 | 91 | 151 | 1.7 | 7.8 | 0.00 | 0.00 | 0.00 | 100 | 1018.9 |
| 20260506175541 | 91 | 151 | 1.7 | 7.8 | 0.00 | 0.00 | 0.00 | 100 | 1018.9 |
| 20260506175041 | 92 | 184 | 3.5 | 13.0 | 0.00 | 0.00 | 0.00 | 100 | 1019.1 |
| 20260506174541 | 92 | 209 | 2.6 | 4.3 | 0.00 | 0.00 | 0.00 | 100 | 1019.0 |
| 20260506174041 | 91 | 78 | 0.0 | 6.1 | 0.00 | 0.00 | 0.00 | 100 | 1019.2 |
| 20260506173751 | 91 | 168 | 5.2 | 10.4 | 0.00 | 0.00 | 0.00 | 100 | 1019.2 |
| 20260506173541 | 91 | 168 | 5.2 | 10.4 | 0.00 | 0.00 | 0.00 | 100 | 1019.2 |
| 20260506173041 | 90 | 210 | 4.3 | 7.0 | 0.00 | 0.00 | 0.00 | 100 | 1019.1 |
| 20260506172642 | 89 | 201 | 6.1 | 9.6 | 0.00 | 0.00 | 0.00 | 100 | 1019.2 |
| 20260506172541 | 89 | 274 | 0.9 | 7.8 | 0.00 | 0.00 | 0.00 | 100 | 1019.1 |
| 20260506172041 | 89 | 201 | 6.1 | 9.6 | 0.00 | 0.00 | 0.00 | 100 | 1019.2 |
| 20260506171541 | 90 | 209 | 7.8 | 8.7 | 0.00 | 0.00 | 0.00 | 100 | 1019.2 |
| 20260506171157 | 90 | 227 | 3.5 | 6.1 | 0.00 | 0.00 | 0.00 | 100 | 1019.2 |
| 20260506171041 | 89 | 185 | 3.5 | 9.6 | 0.00 | 0.00 | 0.00 | 100 | 1019.2 |
| 20260506170541 | 90 | 227 | 3.5 | 6.1 | 0.00 | 0.00 | 0.00 | 100 | 1019.2 |
| 20260506170259 | 88 | 192 | 3.5 | 8.7 | 0.00 | 0.00 | 0.00 | 100 | 1019.4 |
| 20260506170041 | 89 | 195 | 4.3 | 7.8 | 0.00 | 0.00 | 0.00 | 100 | 1019.3 |
| 20260506165541 | 88 | 192 | 3.5 | 8.7 | 0.00 | 0.00 | 0.00 | 100 | 1019.4 |
| 20260506165041 | 89 | 215 | 2.6 | 7.0 | 0.00 | 0.00 | 0.00 | 100 | 1019.5 |
| 20260506164541 | 88 | 187 | 5.2 | 9.6 | 0.00 | 0.00 | 0.00 | 100 | 1019.5 |
| 20260506164200 | 88 | 156 | 6.1 | 7.8 | 0.00 | 0.00 | 0.00 | 100 | 1019.5 |
| 20260506164041 | 88 | 156 | 6.1 | 7.8 | 0.00 | 0.00 | 0.00 | 100 | 1019.5 |
| 20260506163541 | 89 | 236 | 4.3 | 8.7 | 0.00 | 0.00 | 0.00 | 100 | 1019.5 |
| 20260506163041 | 88 | 142 | 3.5 | 9.6 | 0.00 | 0.00 | 0.00 | 100 | 1019.6 |
| 20260506162541 | 89 | 178 | 8.7 | 10.4 | 0.00 | 0.00 | 0.00 | 100 | 1019.6 |
| 20260506162120 | 89 | 153 | 7.0 | 10.4 | 0.00 | 0.00 | 0.00 | 100 | 1019.5 |
| 20260506162041 | 89 | 153 | 7.0 | 10.4 | 0.00 | 0.00 | 0.00 | 100 | 1019.5 |
| 20260506161541 | 88 | 167 | 1.7 | 8.7 | 0.00 | 0.00 | 0.00 | 100 | 1019.6 |
| 20260506161112 | 87 | 199 | 1.7 | 8.7 | 0.00 | 0.00 | 0.00 | 100 | 1019.6 |
| 20260506161041 | 87 | 213 | 5.2 | 8.7 | 0.00 | 0.00 | 0.00 | 100 | 1019.6 |
| 20260506160541 | 87 | 118 | 6.1 | 9.6 | 0.00 | 0.00 | 0.00 | 100 | 1019.6 |
| 20260506160041 | 87 | 199 | 1.7 | 8.7 | 0.00 | 0.00 | 0.00 | 100 | 1019.6 |
| 20260506155941 | 88 | 177 | 6.1 | 7.8 | 0.00 | 0.00 | 0.00 | 100 | 1019.6 |
| 20260506155541 | 87 | 227 | 2.6 | 11.3 | 0.00 | 0.00 | 0.00 | 100 | 1019.7 |
| 20260506155041 | 88 | 177 | 6.1 | 7.8 | 0.00 | 0.00 | 0.00 | 100 | 1019.6 |
| 20260506154813 | 88 | 167 | 7.8 | 8.7 | 0.00 | 0.00 | 0.00 | 100 | 1019.6 |
| 20260506154541 | 87 | 219 | 4.3 | 8.7 | 0.00 | 0.00 | 0.00 | 100 | 1019.7 |
| 20260506154041 | 86 | 192 | 3.5 | 11.3 | 0.00 | 0.00 | 0.00 | 100 | 1019.7 |
| 20260506153541 | 88 | 167 | 7.8 | 8.7 | 0.00 | 0.00 | 0.00 | 100 | 1019.6 |
| 20260506153041 | 87 | 140 | 5.2 | 7.8 | 0.00 | 0.00 | 0.00 | 100 | 1019.6 |
| 20260506152541 | 85 | 154 | 2.6 | 8.7 | 0.00 | 0.00 | 0.00 | 100 | 1019.6 |
| 20260506152439 | 85 | 189 | 2.6 | 10.4 | 0.00 | 0.00 | 0.00 | 100 | 1019.6 |
| 20260506152041 | 85 | 189 | 2.6 | 10.4 | 0.00 | 0.00 | 0.00 | 100 | 1019.6 |
| 20260506151541 | 85 | 178 | 5.2 | 10.4 | 0.00 | 0.00 | 0.00 | 100 | 1019.7 |
| 20260506151147 | 85 | 210 | 7.0 | 7.8 | 0.00 | 0.00 | 0.00 | 100 | 1019.7 |
| 20260506151041 | 85 | 210 | 7.0 | 7.8 | 0.00 | 0.00 | 0.00 | 100 | 1019.7 |
| 20260506150541 | 85 | 108 | 2.6 | 9.6 | 0.00 | 0.00 | 0.00 | 100 | 1019.6 |
| 20260506150041 | 85 | 170 | 4.3 | 8.7 | 0.00 | 0.00 | 0.00 | 100 | 1019.6 |
| 20260506145541 | 84 | 251 | 3.5 | 7.8 | 0.00 | 0.00 | 0.00 | 100 | 1019.6 |
| 20260506145041 | 83 | 175 | 6.1 | 10.4 | 0.00 | 0.00 | 0.00 | 100 | 1019.6 |
| 20260506144541 | 83 | 151 | 2.6 | 7.8 | 0.00 | 0.00 | 0.00 | 100 | 1019.5 |
| 20260506144041 | 84 | 160 | 5.2 | 7.8 | 0.00 | 0.00 | 0.00 | 100 | 1019.5 |
| 20260506143629 | 83 | 181 | 7.0 | 9.6 | 0.00 | 0.00 | 0.00 | 100 | 1019.5 |
| 20260506143542 | 83 | 181 | 7.0 | 9.6 | 0.00 | 0.00 | 0.00 | 100 | 1019.5 |
| 20260506143042 | 83 | 206 | 5.2 | 8.7 | 0.00 | 0.00 | 0.00 | 100 | 1019.5 |
| 20260506142542 | 83 | 189 | 5.2 | 8.7 | 0.00 | 0.00 | 0.00 | 100 | 1019.5 |
| 20260506142120 | 82 | 188 | 2.6 | 7.0 | 0.00 | 0.00 | 0.00 | 100 | 1019.5 |
| 20260506142042 | 82 | 188 | 2.6 | 7.0 | 0.00 | 0.00 | 0.00 | 100 | 1019.5 |
| 20260506141542 | 82 | 194 | 1.7 | 9.6 | 0.00 | 0.00 | 0.00 | 100 | 1019.5 |
| 20260506141329 | 81 | 182 | 7.8 | 7.8 | 0.00 | 0.00 | 0.00 | 100 | 1019.6 |
| 20260506141042 | 81 | 182 | 7.8 | 7.8 | 0.00 | 0.00 | 0.00 | 100 | 1019.6 |
| 20260506140542 | 82 | 157 | 3.5 | 7.8 | 0.00 | 0.00 | 0.00 | 100 | 1019.6 |
| 20260506140042 | 81 | 191 | 5.2 | 8.7 | 0.00 | 0.00 | 0.00 | 100 | 1019.6 |
| 20260506135542 | 81 | 171 | 4.3 | 8.7 | 0.00 | 0.00 | 0.00 | 100 | 1019.5 |
| 20260506135042 | 80 | 194 | 6.1 | 8.7 | 0.00 | 0.00 | 0.00 | 100 | 1019.6 |
| 20260506134542 | 79 | 174 | 4.3 | 9.6 | 0.00 | 0.00 | 0.00 | 100 | 1019.5 |
| 20260506134216 | 79 | 161 | 4.3 | 9.6 | 0.00 | 0.00 | 0.00 | 100 | 1019.5 |
| 20260506134042 | 79 | 161 | 4.3 | 9.6 | 0.00 | 0.00 | 0.00 | 100 | 1019.5 |
| 20260506133956 | 78 | 165 | 8.7 | 9.6 | 0.00 | 0.00 | 0.00 | 100 | 1019.4 |
| 20260506133542 | 78 | 184 | 5.2 | 10.4 | 0.00 | 0.00 | 0.00 | 100 | 1019.4 |
| 20260506133042 | 78 | 165 | 8.7 | 9.6 | 0.00 | 0.00 | 0.00 | 100 | 1019.4 |
| 20260506132700 | 79 | 91 | 6.1 | 8.7 | 0.00 | 0.00 | 0.00 | 100 | 1019.4 |
| 20260506132542 | 79 | 91 | 6.1 | 8.7 | 0.00 | 0.00 | 0.00 | 100 | 1019.4 |
| 20260506132127 | 78 | 115 | 4.3 | 10.4 | 0.00 | 0.00 | 0.00 | 100 | 1019.4 |
| 20260506132042 | 78 | 115 | 4.3 | 10.4 | 0.00 | 0.00 | 0.00 | 100 | 1019.4 |
| 20260506131713 | 78 | 150 | 4.3 | 7.8 | 0.00 | 0.00 | 0.00 | 100 | 1019.3 |
| 20260506131614 | 78 | 150 | 4.3 | 7.8 | 0.00 | 0.00 | 0.00 | 100 | 1019.3 |
| 20260506131542 | 78 | 150 | 4.3 | 7.8 | 0.00 | 0.00 | 0.00 | 100 | 1019.3 |
| 20260506131214 | 77 | 130 | 3.5 | 8.7 | 0.00 | 0.00 | 0.00 | 100 | 1019.4 |
| 20260506131121 | 77 | 130 | 3.5 | 8.7 | 0.00 | 0.00 | 0.00 | 100 | 1019.4 |
| 20260506131042 | 77 | 130 | 3.5 | 8.7 | 0.00 | 0.00 | 0.00 | 100 | 1019.4 |
| 20260506130708 | 77 | 156 | 6.1 | 8.7 | 0.00 | 0.00 | 0.00 | 100 | 1019.3 |
| 20260506130542 | 77 | 156 | 6.1 | 8.7 | 0.00 | 0.00 | 0.00 | 100 | 1019.3 |
| 20260506130042 | 78 | 182 | 2.6 | 6.1 | 0.00 | 0.00 | 0.00 | 100 | 1019.3 |
| 20260506125542 | 77 | 188 | 1.7 | 6.1 | 0.00 | 0.00 | 0.00 | 100 | 1019.2 |
| 20260506125223 | 76 | 132 | 4.3 | 6.1 | 0.00 | 0.00 | 0.00 | 100 | 1019.2 |
| 20260506125042 | 76 | 132 | 4.3 | 6.1 | 0.00 | 0.00 | 0.00 | 100 | 1019.2 |
| 20260506124923 | 73 | 156 | 2.6 | 4.3 | 0.00 | 0.00 | 0.00 | 100 | 1019.1 |
| 20260506124542 | 75 | 132 | 3.5 | 6.1 | 0.00 | 0.00 | 0.00 | 100 | 1019.1 |
| 20260506124133 | 74 | 147 | 6.1 | 6.1 | 0.00 | 0.00 | 0.00 | 100 | 1019.1 |
| 20260506124042 | 74 | 147 | 6.1 | 6.1 | 0.00 | 0.00 | 0.00 | 100 | 1019.1 |
| 20260506123619 | 73 | 125 | 1.7 | 6.1 | 0.00 | 0.00 | 0.00 | 100 | 1019.1 |
| 20260506123542 | 73 | 125 | 1.7 | 6.1 | 0.00 | 0.00 | 0.00 | 100 | 1019.1 |
| 20260506123131 | 73 | 156 | 2.6 | 4.3 | 0.00 | 0.00 | 0.00 | 100 | 1019.1 |
| 20260506123042 | 73 | 156 | 2.6 | 4.3 | 0.00 | 0.00 | 0.00 | 100 | 1019.1 |
| 20260506122642 | 71 | 150 | 1.7 | 4.3 | 0.00 | 0.00 | 0.00 | 100 | 1019.1 |
| 20260506122542 | 71 | 150 | 1.7 | 4.3 | 0.00 | 0.00 | 0.00 | 100 | 1019.1 |
| 20260506122515 | 69 | 77 | 0.0 | 0.0 | 0.00 | 0.00 | 0.00 | 100 | 1018.9 |
| 20260506122042 | 71 | 142 | 0.9 | 4.3 | 0.00 | 0.00 | 0.00 | 100 | 1019.0 |
| 20260506121542 | 70 | 77 | 0.0 | 0.0 | 0.00 | 0.00 | 0.00 | 100 | 1019.0 |
| 20260506121042 | 70 | 77 | 0.0 | 0.0 | 0.00 | 0.00 | 0.00 | 100 | 1018.9 |
| 20260506120626 | 69 | 77 | 0.0 | 0.0 | 0.00 | 0.00 | 0.00 | 100 | 1018.9 |
| 20260506120542 | 69 | 77 | 0.0 | 0.0 | 0.00 | 0.00 | 0.00 | 100 | 1018.9 |
| 20260506120131 | 69 | 77 | 0.0 | 0.0 | 0.00 | 0.00 | 0.00 | 100 | 1018.9 |
| 20260506120042 | 69 | 77 | 0.0 | 0.0 | 0.00 | 0.00 | 0.00 | 100 | 1018.9 |
| 20260506115542 | 69 | 77 | 0.0 | 0.0 | 0.00 | 0.00 | 0.00 | 100 | 1018.9 |
| 20260506115042 | 68 | 77 | 0.0 | 0.0 | 0.00 | 0.00 | 0.00 | 100 | 1018.8 |
| 20260506114746 | 68 | 77 | 0.0 | 0.0 | 0.00 | 0.00 | 0.00 | 100 | 1018.7 |
| 20260506114710 | 68 | 77 | 0.0 | 0.0 | 0.00 | 0.00 | 0.00 | 100 | 1018.7 |
| 20260506114542 | 68 | 77 | 0.0 | 0.0 | 0.00 | 0.00 | 0.00 | 100 | 1018.7 |
| 20260506114042 | 66 | 77 | 0.0 | 0.0 | 0.00 | 0.00 | 0.00 | 100 | 1018.7 |
| 20260506113542 | 65 | 77 | 0.0 | 0.0 | 0.00 | 0.00 | 0.00 | 100 | 1018.8 |
| 20260506113042 | 64 | 77 | 0.0 | 0.0 | 0.00 | 0.00 | 0.00 | 100 | 1018.7 |
| 20260506112542 | 64 | 77 | 0.0 | 0.0 | 0.00 | 0.00 | 0.00 | 100 | 1018.6 |
| 20260506112042 | 63 | 77 | 0.0 | 0.0 | 0.00 | 0.00 | 0.00 | 100 | 1018.5 |
| 20260506111847 | 63 | 77 | 0.0 | 0.0 | 0.00 | 0.00 | 0.00 | 100 | 1018.5 |
| 20260506111648 | 63 | 77 | 0.0 | 0.0 | 0.00 | 0.00 | 0.00 | 100 | 1018.5 |
| 20260506111542 | 63 | 77 | 0.0 | 0.0 | 0.00 | 0.00 | 0.00 | 100 | 1018.5 |
| 20260506111405 | 62 | 77 | 0.0 | 0.0 | 0.00 | 0.00 | 0.00 | 100 | 1018.1 |
| 20260506111042 | 63 | 77 | 0.0 | 0.0 | 0.00 | 0.00 | 0.00 | 100 | 1018.4 |
| 20260506110542 | 63 | 77 | 0.0 | 0.0 | 0.00 | 0.00 | 0.00 | 100 | 1018.3 |
| 20260506110042 | 62 | 77 | 0.0 | 0.0 | 0.00 | 0.00 | 0.00 | 100 | 1018.2 |
| 20260506105542 | 62 | 77 | 0.0 | 0.0 | 0.00 | 0.00 | 0.00 | 100 | 1018.2 |
| 20260506105042 | 62 | 77 | 0.0 | 0.0 | 0.00 | 0.00 | 0.00 | 100 | 1018.2 |
| 20260506104542 | 62 | 77 | 0.0 | 0.0 | 0.00 | 0.00 | 0.00 | 100 | 1018.1 |
| 20260506104358 | 62 | 77 | 0.0 | 0.0 | 0.00 | 0.00 | 0.00 | 100 | 1017.8 |
| 20260506104042 | 63 | 77 | 0.0 | 0.0 | 0.00 | 0.00 | 0.00 | 100 | 1018.1 |
| 20260506103543 | 63 | 77 | 0.0 | 0.0 | 0.00 | 0.00 | 0.00 | 100 | 1018.0 |
| 20260506103043 | 62 | 77 | 0.0 | 0.0 | 0.00 | 0.00 | 0.00 | 100 | 1017.8 |
| 20260506102543 | 62 | 77 | 0.0 | 0.0 | 0.00 | 0.00 | 0.00 | 100 | 1018.0 |
| 20260506102043 | 62 | 77 | 0.0 | 0.0 | 0.00 | 0.00 | 0.00 | 100 | 1018.0 |
| 20260506101543 | 62 | 77 | 0.0 | 0.0 | 0.00 | 0.00 | 0.00 | 100 | 1017.9 |
| 20260506101043 | 62 | 77 | 0.0 | 0.0 | 0.00 | 0.00 | 0.00 | 100 | 1017.9 |
| 20260506100543 | 62 | 77 | 0.0 | 0.0 | 0.00 | 0.00 | 0.00 | 100 | 1017.9 |
| 20260506100043 | 62 | 77 | 0.0 | 0.0 | 0.00 | 0.00 | 0.00 | 100 | 1017.8 |
| 20260506095543 | 62 | 77 | 0.0 | 0.0 | 0.00 | 0.00 | 0.00 | 100 | 1017.9 |
| 20260506095043 | 62 | 77 | 0.0 | 0.0 | 0.00 | 0.00 | 0.00 | 100 | 1017.9 |
| 20260506094543 | 62 | 77 | 0.0 | 0.0 | 0.00 | 0.00 | 0.00 | 100 | 1018.0 |
| 20260506094043 | 62 | 77 | 0.0 | 0.0 | 0.00 | 0.00 | 0.00 | 100 | 1017.8 |
| 20260506093759 | 62 | 77 | 0.0 | 0.0 | 0.00 | 0.00 | 0.00 | 100 | 1017.8 |
| 20260506093543 | 62 | 77 | 0.0 | 0.0 | 0.00 | 0.00 | 0.00 | 100 | 1017.8 |
| 20260506093043 | 62 | 77 | 0.0 | 0.0 | 0.00 | 0.00 | 0.00 | 100 | 1017.9 |
| 20260506092543 | 63 | 77 | 0.0 | 0.0 | 0.00 | 0.00 | 0.00 | 100 | 1017.9 |
| 20260506092043 | 62 | 77 | 0.0 | 0.0 | 0.00 | 0.00 | 0.00 | 100 | 1017.9 |
| 20260506091615 | 63 | 77 | 0.0 | 0.0 | 0.00 | 0.00 | 0.00 | 100 | 1018.0 |
| 20260506091543 | 63 | 77 | 0.0 | 0.0 | 0.00 | 0.00 | 0.00 | 100 | 1018.0 |
| 20260506091338 | 63 | 77 | 0.0 | 0.0 | 0.00 | 0.00 | 0.00 | 100 | 1018.0 |
| 20260506091043 | 63 | 77 | 0.0 | 0.0 | 0.00 | 0.00 | 0.00 | 100 | 1018.0 |
| 20260506090731 | 63 | 77 | 0.0 | 0.0 | 0.00 | 0.00 | 0.00 | 100 | 1018.0 |
| 20260506090543 | 63 | 77 | 0.0 | 0.0 | 0.00 | 0.00 | 0.00 | 100 | 1018.0 |
| 20260506090043 | 63 | 77 | 0.0 | 0.0 | 0.00 | 0.00 | 0.00 | 100 | 1018.0 |
| 20260506085636 | 63 | 77 | 0.0 | 0.0 | 0.00 | 0.00 | 0.00 | 100 | 1018.1 |
| 20260506085543 | 63 | 77 | 0.0 | 0.0 | 0.00 | 0.00 | 0.00 | 100 | 1018.1 |
| 20260506085242 | 63 | 77 | 0.0 | 0.0 | 0.00 | 0.00 | 0.00 | 100 | 1018.1 |
| 20260506085043 | 63 | 77 | 0.0 | 0.0 | 0.00 | 0.00 | 0.00 | 100 | 1018.1 |
| 20260506084543 | 63 | 77 | 0.0 | 0.0 | 0.00 | 0.00 | 0.00 | 100 | 1018.1 |
| 20260506084504 | 64 | 77 | 0.0 | 0.0 | 0.00 | 0.00 | 0.00 | 100 | 1018.1 |
| 20260506084043 | 64 | 77 | 0.0 | 0.0 | 0.00 | 0.00 | 0.00 | 100 | 1018.0 |
| 20260506083802 | 64 | 77 | 0.0 | 0.0 | 0.00 | 0.00 | 0.00 | 100 | 1018.1 |
| 20260506083643 | 64 | 77 | 0.0 | 0.0 | 0.00 | 0.00 | 0.00 | 100 | 1018.1 |
| 20260506083543 | 64 | 77 | 0.0 | 0.0 | 0.00 | 0.00 | 0.00 | 100 | 1018.1 |
| 20260506083132 | 64 | 77 | 0.0 | 0.0 | 0.00 | 0.00 | 0.00 | 100 | 1018.0 |
| 20260506083043 | 64 | 77 | 0.0 | 0.0 | 0.00 | 0.00 | 0.00 | 100 | 1018.0 |
| 20260506082718 | 64 | 77 | 0.0 | 0.0 | 0.00 | 0.00 | 0.00 | 100 | 1018.0 |
| 20260506082543 | 64 | 77 | 0.0 | 0.0 | 0.00 | 0.00 | 0.00 | 100 | 1018.0 |
| 20260506082043 | 64 | 77 | 0.0 | 0.0 | 0.00 | 0.00 | 0.00 | 100 | 1018.0 |
| 20260506081719 | 64 | 77 | 0.0 | 0.0 | 0.00 | 0.00 | 0.00 | 100 | 1017.9 |
| 20260506081709 | 64 | 77 | 0.0 | 0.0 | 0.00 | 0.00 | 0.00 | 100 | 1017.9 |
| 20260506081543 | 64 | 77 | 0.0 | 0.0 | 0.00 | 0.00 | 0.00 | 100 | 1017.9 |
| 20260506081043 | 64 | 77 | 0.0 | 0.0 | 0.00 | 0.00 | 0.00 | 100 | 1017.9 |
| 20260506080543 | 64 | 77 | 0.0 | 0.0 | 0.00 | 0.00 | 0.00 | 100 | 1018.0 |
| 20260506080126 | 65 | 85 | 0.0 | 0.9 | 0.00 | 0.00 | 0.00 | 100 | 1017.7 |
| 20260506073043 | 64 | 57 | 0.0 | 0.0 | 0.00 | 0.00 | 0.00 | 100 | 1018.1 |
| 20260506072943 | 65 | 57 | 0.0 | 0.0 | 0.00 | 0.00 | 0.00 | 100 | 1018.1 |
| 20260506072543 | 64 | 57 | 0.0 | 0.0 | 0.00 | 0.00 | 0.00 | 100 | 1018.0 |
| 20260506072043 | 65 | 57 | 0.0 | 0.0 | 0.00 | 0.00 | 0.00 | 100 | 1018.1 |
| 20260506071543 | 65 | 57 | 0.0 | 0.0 | 0.00 | 0.00 | 0.00 | 100 | 1018.1 |
| 20260506071201 | 65 | 57 | 0.0 | 0.0 | 0.00 | 0.00 | 0.00 | 100 | 1018.2 |
| 20260506071043 | 64 | 57 | 0.0 | 0.0 | 0.00 | 0.00 | 0.00 | 100 | 1018.1 |
| 20260506070543 | 65 | 57 | 0.0 | 0.0 | 0.00 | 0.00 | 0.00 | 100 | 1018.2 |
| 20260506062044 | 66 | 57 | 0.0 | 0.0 | 0.00 | 0.00 | 0.00 | 100 | 1018.4 |
| 20260506061630 | 66 | 57 | 0.0 | 0.0 | 0.00 | 0.00 | 0.00 | 100 | 1018.4 |
| 20260506061621 | 66 | 57 | 0.0 | 0.0 | 0.00 | 0.00 | 0.00 | 100 | 1018.5 |
| 20260506061544 | 66 | 57 | 0.0 | 0.0 | 0.00 | 0.00 | 0.00 | 100 | 1018.5 |
| 20260506061044 | 66 | 57 | 0.0 | 0.0 | 0.00 | 0.00 | 0.00 | 100 | 1018.4 |
| 20260506061004 | 66 | 57 | 0.0 | 0.0 | 0.00 | 0.00 | 0.00 | 100 | 1018.5 |
| 20260506060544 | 66 | 57 | 0.0 | 0.0 | 0.00 | 0.00 | 0.00 | 100 | 1018.5 |
| 20260506051044 | 68 | 67 | 0.0 | 0.9 | 0.00 | 0.00 | 0.00 | 100 | 1019.1 |
| 20260506050544 | 68 | 78 | 0.0 | 1.7 | 0.00 | 0.00 | 0.00 | 100 | 1019.1 |
| 20260506050253 | 69 | 91 | 0.0 | 0.0 | 0.00 | 0.00 | 0.00 | 100 | 1019.1 |
| 20260506045044 | 69 | 57 | 0.0 | 0.9 | 0.00 | 0.00 | 0.00 | 100 | 1019.2 |
| 20260506045037 | 69 | 97 | 0.9 | 0.9 | 0.00 | 0.00 | 0.00 | 100 | 1019.1 |
| 20260506044544 | 69 | 97 | 0.9 | 0.9 | 0.00 | 0.00 | 0.00 | 100 | 1019.1 |
| 20260506044252 | 70 | 90 | 0.9 | 1.7 | 0.00 | 0.00 | 0.00 | 100 | 1019.1 |
| 20260506044044 | 70 | 90 | 0.9 | 1.7 | 0.00 | 0.00 | 0.00 | 100 | 1019.1 |
| 20260506043717 | 71 | 87 | 0.9 | 2.6 | 0.00 | 0.00 | 0.00 | 100 | 1019.1 |
| 20260506043544 | 71 | 87 | 0.9 | 2.6 | 0.00 | 0.00 | 0.00 | 100 | 1019.1 |
| 20260506043133 | 71 | 132 | 1.7 | 2.6 | 0.00 | 0.00 | 0.00 | 100 | 1019.0 |
| 20260506043044 | 71 | 116 | 0.9 | 2.6 | 0.00 | 0.00 | 0.00 | 100 | 1019.1 |
| 20260506042544 | 71 | 132 | 1.7 | 2.6 | 0.00 | 0.00 | 0.00 | 100 | 1019.0 |
| 20260506042331 | 71 | 92 | 1.7 | 3.5 | 0.00 | 0.00 | 0.00 | 100 | 1019.0 |
| 20260506042044 | 71 | 139 | 2.6 | 3.5 | 0.00 | 0.00 | 0.00 | 100 | 1018.9 |
| 20260506041544 | 71 | 92 | 1.7 | 3.5 | 0.00 | 0.00 | 0.00 | 100 | 1019.0 |
| 20260506041139 | 71 | 119 | 2.6 | 4.3 | 0.00 | 0.00 | 0.00 | 100 | 1019.0 |
| 20260506041044 | 71 | 119 | 2.6 | 4.3 | 0.00 | 0.00 | 0.00 | 100 | 1019.0 |
| 20260506040716 | 71 | 102 | 1.7 | 2.6 | 0.00 | 0.00 | 0.00 | 100 | 1019.0 |
| 20260506040544 | 71 | 102 | 1.7 | 2.6 | 0.00 | 0.00 | 0.00 | 100 | 1019.0 |
| 20260506040204 | 71 | 123 | 0.9 | 2.6 | 0.00 | 0.00 | 0.00 | 100 | 1018.9 |
| 20260506040044 | 71 | 123 | 0.9 | 2.6 | 0.00 | 0.00 | 0.00 | 100 | 1018.9 |
| 20260506035804 | 72 | 95 | 1.7 | 3.5 | 0.00 | 0.00 | 0.00 | 100 | 1019.1 |
| 20260506035544 | 72 | 91 | 0.9 | 2.6 | 0.00 | 0.00 | 0.00 | 100 | 1019.0 |
| 20260506035044 | 72 | 95 | 1.7 | 3.5 | 0.00 | 0.00 | 0.00 | 100 | 1019.1 |
| 20260506034544 | 72 | 71 | 1.7 | 2.6 | 0.00 | 0.00 | 0.00 | 100 | 1019.1 |
| 20260506034044 | 73 | 111 | 1.7 | 2.6 | 0.00 | 0.00 | 0.00 | 100 | 1019.2 |
| 20260506033705 | 73 | 113 | 1.7 | 2.6 | 0.00 | 0.00 | 0.00 | 100 | 1019.1 |
| 20260506033544 | 73 | 80 | 2.6 | 2.6 | 0.00 | 0.00 | 0.00 | 100 | 1019.2 |
| 20260506033044 | 73 | 113 | 1.7 | 2.6 | 0.00 | 0.00 | 0.00 | 100 | 1019.1 |
| 20260506033008 | 73 | 149 | 2.6 | 4.3 | 0.00 | 0.00 | 0.00 | 100 | 1019.2 |
| 20260506032544 | 73 | 149 | 2.6 | 4.3 | 0.00 | 0.00 | 0.00 | 100 | 1019.2 |
| 20260506032234 | 74 | 92 | 2.6 | 4.3 | 0.00 | 0.00 | 0.00 | 100 | 1019.1 |
| 20260506032044 | 74 | 150 | 1.7 | 4.3 | 0.00 | 0.00 | 0.00 | 100 | 1019.1 |
| 20260506031544 | 74 | 92 | 2.6 | 4.3 | 0.00 | 0.00 | 0.00 | 100 | 1019.1 |
| 20260506031210 | 74 | 104 | 1.7 | 4.3 | 0.00 | 0.00 | 0.00 | 100 | 1019.1 |
| 20260506031044 | 74 | 104 | 1.7 | 4.3 | 0.00 | 0.00 | 0.00 | 100 | 1019.1 |
| 20260506030702 | 74 | 95 | 3.5 | 4.3 | 0.00 | 0.00 | 0.00 | 100 | 1019.0 |
| 20260506030544 | 74 | 95 | 3.5 | 4.3 | 0.00 | 0.00 | 0.00 | 100 | 1019.0 |
| 20260506030420 | 75 | 125 | 3.5 | 4.3 | 0.00 | 0.00 | 0.00 | 100 | 1019.0 |
| 20260506030044 | 75 | 125 | 3.5 | 4.3 | 0.00 | 0.00 | 0.00 | 100 | 1019.0 |
| 20260506025548 | 75 | 59 | 3.5 | 5.2 | 0.00 | 0.00 | 0.00 | 100 | 1019.0 |
| 20260506025544 | 75 | 129 | 3.5 | 5.2 | 0.00 | 0.00 | 0.00 | 100 | 1019.0 |
| 20260506025134 | 75 | 120 | 1.7 | 5.2 | 0.00 | 0.00 | 0.00 | 100 | 1018.9 |
| 20260506025044 | 75 | 59 | 3.5 | 5.2 | 0.00 | 0.00 | 0.00 | 100 | 1019.0 |
| 20260506024545 | 75 | 120 | 1.7 | 5.2 | 0.00 | 0.00 | 0.00 | 100 | 1018.9 |
| 20260506024531 | 75 | 120 | 2.6 | 6.1 | 0.00 | 0.00 | 0.00 | 100 | 1018.9 |
| 20260506024045 | 75 | 120 | 2.6 | 6.1 | 0.00 | 0.00 | 0.00 | 100 | 1018.9 |
| 20260506024031 | 75 | 46 | 0.9 | 7.8 | 0.00 | 0.00 | 0.00 | 100 | 1018.8 |
| 20260506023545 | 75 | 46 | 0.9 | 7.8 | 0.00 | 0.00 | 0.00 | 100 | 1018.8 |
| 20260506023045 | 75 | 82 | 1.7 | 3.5 | 0.00 | 0.00 | 0.00 | 100 | 1018.8 |
| 20260506022631 | 75 | 109 | 1.7 | 7.0 | 0.00 | 0.00 | 0.00 | 100 | 1018.7 |
| 20260506022545 | 75 | 137 | 3.5 | 4.3 | 0.00 | 0.00 | 0.00 | 100 | 1018.7 |
| 20260506022045 | 75 | 109 | 1.7 | 7.0 | 0.00 | 0.00 | 0.00 | 100 | 1018.7 |
| 20260506021740 | 74 | 106 | 5.2 | 6.1 | 0.00 | 0.00 | 0.00 | 100 | 1018.6 |
| 20260506021545 | 74 | 106 | 5.2 | 6.1 | 0.00 | 0.00 | 0.00 | 100 | 1018.6 |
| 20260506021045 | 74 | 2 | 0.0 | 2.6 | 0.00 | 0.00 | 0.00 | 100 | 1018.6 |
| 20260506021037 | 74 | 97 | 2.6 | 5.2 | 0.00 | 0.00 | 0.00 | 100 | 1018.7 |
| 20260506020629 | 74 | 97 | 2.6 | 5.2 | 0.00 | 0.00 | 0.00 | 100 | 1018.7 |
| 20260506020545 | 74 | 97 | 2.6 | 5.2 | 0.00 | 0.00 | 0.00 | 100 | 1018.7 |
| 20260506020045 | 73 | 130 | 3.5 | 5.2 | 0.00 | 0.00 | 0.00 | 100 | 1018.6 |
| 20260506015933 | 74 | 19 | 0.0 | 3.5 | 0.00 | 0.00 | 0.00 | 100 | 1018.5 |
| 20260506015545 | 74 | 19 | 0.0 | 3.5 | 0.00 | 0.00 | 0.00 | 100 | 1018.5 |
| 20260506015503 | 73 | 26 | 0.9 | 1.7 | 0.00 | 0.00 | 0.00 | 100 | 1018.5 |
| 20260506015045 | 73 | 26 | 0.9 | 1.7 | 0.00 | 0.00 | 0.00 | 100 | 1018.5 |
| 20260506014545 | 74 | 98 | 1.7 | 2.6 | 0.00 | 0.00 | 0.00 | 100 | 1018.4 |
| 20260506014533 | 74 | 109 | 1.7 | 2.6 | 0.00 | 0.00 | 0.00 | 100 | 1018.3 |
| 20260506014045 | 74 | 109 | 1.7 | 2.6 | 0.00 | 0.00 | 0.00 | 100 | 1018.3 |
| 20260506013828 | 75 | 19 | 0.9 | 4.3 | 0.00 | 0.00 | 0.00 | 100 | 1018.3 |
| 20260506013545 | 75 | 19 | 0.9 | 4.3 | 0.00 | 0.00 | 0.00 | 100 | 1018.3 |
| 20260506013504 | 75 | 333 | 2.6 | 7.0 | 0.00 | 0.00 | 0.00 | 100 | 1018.1 |
| 20260506013413 | 75 | 358 | 3.5 | 4.3 | 0.00 | 0.00 | 0.00 | 100 | 1018.3 |
| 20260506013141 | 75 | 358 | 3.5 | 4.3 | 0.00 | 0.00 | 0.00 | 100 | 1018.3 |
| 20260506013045 | 75 | 358 | 3.5 | 4.3 | 0.00 | 0.00 | 0.00 | 100 | 1018.3 |
| 20260506013017 | 75 | 333 | 2.6 | 7.0 | 0.00 | 0.00 | 0.00 | 100 | 1018.1 |
| 20260506012545 | 75 | 333 | 2.6 | 7.0 | 0.00 | 0.00 | 0.00 | 100 | 1018.1 |
| 20260506012045 | 75 | 330 | 4.3 | 5.2 | 0.00 | 0.00 | 0.00 | 100 | 1018.2 |
| 20260506012042 | 75 | 350 | 3.5 | 3.5 | 0.00 | 0.00 | 0.00 | 100 | 1018.1 |
| 20260506011758 | 75 | 358 | 2.6 | 3.5 | 0.00 | 0.00 | 0.00 | 100 | 1018.2 |
| 20260506011551 | 75 | 350 | 3.5 | 3.5 | 0.00 | 0.00 | 0.00 | 100 | 1018.1 |
| 20260506011545 | 75 | 358 | 2.6 | 3.5 | 0.00 | 0.00 | 0.00 | 100 | 1018.2 |
| 20260506011045 | 75 | 350 | 3.5 | 3.5 | 0.00 | 0.00 | 0.00 | 100 | 1018.1 |
| 20260506010800 | 75 | 4 | 0.0 | 0.0 | 0.00 | 0.00 | 0.00 | 100 | 1018.0 |
| 20260506010545 | 75 | 4 | 0.0 | 0.0 | 0.00 | 0.00 | 0.00 | 100 | 1018.0 |
| 20260506010045 | 76 | 4 | 0.0 | 0.9 | 0.00 | 0.00 | 0.00 | 100 | 1018.0 |
| 20260506005900 | 76 | 333 | 0.0 | 1.7 | 0.00 | 0.00 | 0.00 | 100 | 1017.9 |
| 20260506005747 | 76 | 333 | 0.0 | 1.7 | 0.00 | 0.00 | 0.00 | 100 | 1017.9 |
| 20260506005545 | 76 | 333 | 0.0 | 1.7 | 0.00 | 0.00 | 0.00 | 100 | 1017.9 |
| 20260506005530 | 76 | 14 | 0.0 | 1.7 | 0.00 | 0.00 | 0.00 | 100 | 1017.8 |
| 20260506005239 | 77 | 26 | 0.0 | 3.5 | 0.00 | 0.00 | 0.00 | 100 | 1017.6 |
| 20260506005045 | 76 | 14 | 0.0 | 1.7 | 0.00 | 0.00 | 0.00 | 100 | 1017.8 |
| 20260506005032 | 76 | 2 | 0.0 | 0.0 | 0.00 | 0.00 | 0.00 | 100 | 1017.9 |
| 20260506004545 | 76 | 2 | 0.0 | 0.0 | 0.00 | 0.00 | 0.00 | 100 | 1017.9 |
| 20260506004510 | 77 | 2 | 0.0 | 0.0 | 0.00 | 0.00 | 0.00 | 100 | 1017.8 |
| 20260506004045 | 77 | 2 | 0.0 | 0.0 | 0.00 | 0.00 | 0.00 | 100 | 1017.8 |
| 20260506003816 | 77 | 2 | 0.0 | 0.0 | 0.00 | 0.00 | 0.00 | 100 | 1017.7 |
| 20260506003545 | 77 | 2 | 0.0 | 0.0 | 0.00 | 0.00 | 0.00 | 100 | 1017.7 |
| 20260506003045 | 77 | 2 | 0.0 | 1.7 | 0.00 | 0.00 | 0.00 | 100 | 1017.7 |
| 20260506002940 | 77 | 26 | 0.0 | 3.5 | 0.00 | 0.00 | 0.00 | 100 | 1017.6 |
| 20260506002545 | 77 | 26 | 0.0 | 3.5 | 0.00 | 0.00 | 0.00 | 100 | 1017.6 |
| 20260506002404 | 77 | 1 | 0.0 | 0.9 | 0.00 | 0.00 | 0.00 | 100 | 1017.6 |
| 20260506002045 | 77 | 1 | 0.0 | 0.9 | 0.00 | 0.00 | 0.00 | 100 | 1017.6 |
| 20260506001824 | 78 | 315 | 0.9 | 5.2 | 0.00 | 0.00 | 0.00 | 100 | 1017.3 |
| 20260506001545 | 78 | 337 | 0.0 | 3.5 | 0.00 | 0.00 | 0.00 | 100 | 1017.4 |
| 20260506001045 | 78 | 315 | 0.9 | 5.2 | 0.00 | 0.00 | 0.00 | 100 | 1017.3 |
| 20260506000720 | 79 | 7 | 3.5 | 6.1 | 0.00 | 0.00 | 0.00 | 100 | 1017.0 |
| 20260506000545 | 78 | 337 | 2.6 | 4.3 | 0.00 | 0.00 | 0.00 | 100 | 1017.2 |
| 20260506000045 | 79 | 319 | 1.7 | 6.1 | 0.00 | 0.00 | 0.00 | 100 | 1017.0 |
| 20260505235748 | 79 | 336 | 1.7 | 6.1 | 0.00 | 0.00 | 0.00 | 100 | 1017.0 |
| 20260505235545 | 79 | 7 | 3.5 | 6.1 | 0.00 | 0.00 | 0.00 | 100 | 1017.0 |
| 20260505235310 | 79 | 336 | 1.7 | 6.1 | 0.00 | 0.00 | 0.00 | 100 | 1017.0 |
| 20260505235045 | 79 | 336 | 1.7 | 6.1 | 0.00 | 0.00 | 0.00 | 100 | 1017.0 |
| 20260505234923 | 80 | 358 | 2.6 | 6.1 | 0.00 | 0.00 | 0.00 | 100 | 1016.9 |
| 20260505234812 | 80 | 358 | 2.6 | 6.1 | 0.00 | 0.00 | 0.00 | 100 | 1016.9 |
| 20260505234545 | 80 | 358 | 2.6 | 6.1 | 0.00 | 0.00 | 0.00 | 100 | 1016.9 |
| 20260505234529 | 80 | 350 | 3.5 | 7.8 | 0.00 | 0.00 | 0.00 | 100 | 1016.7 |
| 20260505234457 | 80 | 350 | 3.5 | 7.8 | 0.00 | 0.00 | 0.00 | 100 | 1016.7 |
| 20260505234045 | 80 | 350 | 3.5 | 7.8 | 0.00 | 0.00 | 0.00 | 100 | 1016.7 |
| 20260505233952 | 81 | 2 | 0.0 | 6.1 | 0.00 | 0.00 | 0.00 | 100 | 1016.7 |
| 20260505233545 | 81 | 2 | 0.0 | 6.1 | 0.00 | 0.00 | 0.00 | 100 | 1016.7 |
| 20260505233457 | 82 | 1 | 0.9 | 6.1 | 0.00 | 0.00 | 0.00 | 100 | 1016.8 |
| 20260505233329 | 82 | 1 | 0.9 | 6.1 | 0.00 | 0.00 | 0.00 | 100 | 1016.8 |
| 20260505233045 | 82 | 1 | 0.9 | 6.1 | 0.00 | 0.00 | 0.00 | 100 | 1016.8 |
| 20260505233026 | 82 | 7 | 3.5 | 9.6 | 0.00 | 0.00 | 0.00 | 100 | 1016.7 |
| 20260505232838 | 82 | 7 | 3.5 | 9.6 | 0.00 | 0.00 | 0.00 | 100 | 1016.7 |
| 20260505232545 | 82 | 7 | 3.5 | 9.6 | 0.00 | 0.00 | 0.00 | 100 | 1016.7 |
| 20260505232317 | 83 | 337 | 5.2 | 9.6 | 0.00 | 0.00 | 0.00 | 100 | 1016.7 |
| 20260505232045 | 83 | 337 | 5.2 | 9.6 | 0.00 | 0.00 | 0.00 | 100 | 1016.7 |
| 20260505231933 | 83 | 307 | 7.0 | 10.4 | 0.00 | 0.00 | 0.00 | 100 | 1016.6 |
| 20260505231858 | 83 | 307 | 7.0 | 10.4 | 0.00 | 0.00 | 0.00 | 100 | 1016.6 |
| 20260505231545 | 83 | 307 | 7.0 | 10.4 | 0.00 | 0.00 | 0.00 | 100 | 1016.6 |
| 20260505231120 | 83 | 14 | 3.5 | 9.6 | 0.00 | 0.00 | 0.00 | 100 | 1016.6 |
| 20260505231045 | 83 | 14 | 3.5 | 9.6 | 0.00 | 0.00 | 0.00 | 100 | 1016.6 |
| 20260505230817 | 83 | 347 | 4.3 | 7.8 | 0.00 | 0.00 | 0.00 | 100 | 1016.6 |
| 20260505230545 | 83 | 347 | 4.3 | 7.8 | 0.00 | 0.00 | 0.00 | 100 | 1016.6 |
| 20260505230228 | 83 | 284 | 2.6 | 8.7 | 0.00 | 0.00 | 0.00 | 100 | 1016.6 |
| 20260505230045 | 83 | 284 | 2.6 | 8.7 | 0.00 | 0.00 | 0.00 | 100 | 1016.6 |
| 20260505230035 | 83 | 289 | 2.6 | 7.8 | 0.00 | 0.00 | 0.00 | 100 | 1016.6 |
| 20260505225728 | 83 | 289 | 2.6 | 7.8 | 0.00 | 0.00 | 0.00 | 100 | 1016.6 |
| 20260505225545 | 83 | 289 | 2.6 | 7.8 | 0.00 | 0.00 | 0.00 | 100 | 1016.6 |
| 20260505225045 | 83 | 271 | 2.6 | 7.0 | 0.00 | 0.00 | 0.00 | 100 | 1016.5 |
| 20260505224935 | 83 | 264 | 2.6 | 8.7 | 0.00 | 0.00 | 0.00 | 100 | 1016.6 |
| 20260505224546 | 83 | 264 | 2.6 | 8.7 | 0.00 | 0.00 | 0.00 | 100 | 1016.6 |
| 20260505224046 | 83 | 257 | 3.5 | 9.6 | 0.00 | 0.00 | 0.00 | 100 | 1016.5 |
| 20260505224018 | 84 | 286 | 1.7 | 7.8 | 0.00 | 0.00 | 0.00 | 100 | 1016.5 |
| 20260505223546 | 84 | 286 | 1.7 | 7.8 | 0.00 | 0.00 | 0.00 | 100 | 1016.5 |
| 20260505223046 | 84 | 312 | 4.3 | 9.6 | 0.00 | 0.00 | 0.00 | 100 | 1016.5 |